Location: Zagreb
(45.8000°N, 16.0000°E)
Time: 14:05:14
(UTC+02:00)

Transit 2A - Pass Details

Date: 16 August 2022
Orbit: 601 x 956 km, 66.7° (Epoch: 25 September)

Event Time Altitude Azimuth Distance (km) Brightness Sun altitude
Rises 21:38:35 0° 305° (NW) 2,875 10.9 -15.3°
Reaches altitude 10° 21:42:36 10° 268° (W) 2,005 8.9 -15.8°
Maximum altitude 21:43:42 11° 254° (WSW) 1,964 8.6 -16.0°
Drops below altitude 10° 21:44:49 10° 240° (WSW) 2,033 8.4 -16.1°
Sets 21:49:02 0° 204° (SSW) 3,017 8.9 -16.7°
